OSCAR 23

Last updated on Fri Jun 19 2026 20:04:44 GMT+0000 (Coordinated Universal Time)

1 19070U 88033A 26170.59368995 .00000057 00000+0 98533-4 0 9992 2 19070 90.3273 22.3645 0190025 15.7799 47.0243 13.27817890847599
UTC large
Height (km)
Speed (km/s)
/
Latitude / Longitude
Inclination (degrees)
Orbital Period (minutes)
Azimuth
Elevation
Range (km)
Doppler Factor

Next 0 passes for location: London (51.5072 / 0.1276)

Sorry there are no passes over London.
OSCAR 23